| time (UTC) | temp C | wind direction | speed KPH | gust KPH | rain 1hr cm | rain 24hr cm | rain mn cm | humidity % | barometer mb |
| 20260508045909 | 10 | 14 | 0.0 | 0.0 | 0.00 | 0.00 | 0.00 | 60 | 1020.5 |
| 20260508044407 | 10 | 57 | 0.0 | 0.0 | 0.00 | 0.00 | 0.00 | 60 | 1020.7 |
| 20260508042902 | 11 | 351 | 1.6 | 4.8 | 0.00 | 0.00 | 0.00 | 54 | 1020.9 |
| 20260508041359 | 12 | 342 | 4.8 | 9.7 | 0.00 | 0.00 | 0.00 | 51 | 1020.9 |
| 20260508035856 | 11 | 332 | 0.0 | 0.0 | 0.00 | 0.00 | 0.00 | 57 | 1020.8 |
| 20260508034353 | 12 | 324 | 0.0 | 0.0 | 0.00 | 0.00 | 0.00 | 55 | 1020.4 |
| 20260508032851 | 12 | 309 | 0.0 | 0.0 | 0.00 | 0.00 | 0.00 | 54 | 1020.4 |
| 20260508031348 | 11 | 318 | 0.0 | 0.0 | 0.00 | 0.00 | 0.00 | 57 | 1020.2 |
| 20260508025844 | 11 | 313 | 0.0 | 0.0 | 0.00 | 0.00 | 0.00 | 56 | 1019.9 |
| 20260508024340 | 12 | 292 | 0.0 | 0.0 | 0.00 | 0.00 | 0.00 | 50 | 1019.8 |
| 20260508022836 | 12 | 332 | 0.0 | 0.0 | 0.00 | 0.00 | 0.00 | 50 | 1019.6 |
| 20260508021331 | 13 | 335 | 0.0 | 0.0 | 0.00 | 0.00 | 0.00 | 44 | 1019.1 |
| 20260508015828 | 13 | 305 | 0.0 | 0.0 | 0.00 | 0.00 | 0.00 | 48 | 1019.3 |
| 20260508014325 | 13 | 290 | 0.0 | 0.0 | 0.00 | 0.00 | 0.00 | 47 | 1019.1 |
| 20260508012825 | 15 | 318 | 0.0 | 0.0 | 0.00 | 0.00 | 0.00 | 40 | 1019.1 |
| 20260508011323 | 15 | 194 | 0.0 | 0.0 | 0.00 | 0.00 | 0.00 | 34 | 1018.8 |
| 20260508005821 | 15 | 302 | 0.0 | 0.0 | 0.00 | 0.00 | 0.00 | 32 | 1018.5 |
| 20260508004316 | 16 | 325 | 0.0 | 0.0 | 0.00 | 0.00 | 0.00 | 36 | 1018.9 |
| 20260508002812 | 16 | 318 | 0.0 | 0.0 | 0.00 | 0.00 | 0.00 | 34 | 1018.7 |
| 20260508001307 | 16 | 292 | 0.0 | 0.0 | 0.00 | 0.00 | 0.00 | 32 | 1018.6 |
| 20260507235802 | 16 | 292 | 0.0 | 0.0 | 0.00 | 0.00 | 0.00 | 30 | 1018.5 |
| 20260507234258 | 16 | 316 | 0.0 | 0.0 | 0.00 | 0.00 | 0.00 | 30 | 1018.7 |
| 20260507232756 | 17 | 290 | 4.8 | 4.8 | 0.00 | 0.00 | 0.00 | 28 | 1018.6 |
| 20260507231252 | 18 | 331 | 3.2 | 9.7 | 0.00 | 0.00 | 0.00 | 26 | 1018.6 |
| 20260507225751 | 19 | 323 | 8.0 | 11.3 | 0.00 | 0.00 | 0.00 | 25 | 1018.7 |
| 20260507224246 | 19 | 300 | 8.0 | 11.3 | 0.00 | 0.00 | 0.00 | 25 | 1018.5 |
| 20260507222742 | 18 | 291 | 6.4 | 9.7 | 0.00 | 0.00 | 0.00 | 30 | 1018.8 |
| 20260507221237 | 19 | 26 | 0.0 | 0.0 | 0.00 | 0.00 | 0.00 | 31 | 1018.7 |
| 20260507215734 | 18 | 309 | 8.0 | 9.7 | 0.00 | 0.00 | 0.00 | 27 | 1018.9 |
| 20260507214232 | 19 | 293 | 4.8 | 8.0 | 0.00 | 0.00 | 0.00 | 27 | 1019.2 |
| 20260507212732 | 18 | 324 | 4.8 | 9.7 | 0.00 | 0.00 | 0.00 | 28 | 1019.2 |
| 20260507211227 | 18 | 295 | 8.0 | 9.7 | 0.00 | 0.00 | 0.00 | 27 | 1019.8 |
| 20260507205724 | 18 | 279 | 8.0 | 9.7 | 0.00 | 0.00 | 0.00 | 28 | 1019.8 |
| 20260507204220 | 18 | 261 | 9.7 | 9.7 | 0.00 | 0.00 | 0.00 | 28 | 1020.0 |
| 20260507202717 | 18 | 280 | 6.4 | 8.0 | 0.00 | 0.00 | 0.00 | 31 | 1020.3 |
| 20260507201217 | 17 | 247 | 3.2 | 8.0 | 0.00 | 0.00 | 0.00 | 28 | 1020.4 |
| 20260507195712 | 17 | 279 | 6.4 | 8.0 | 0.00 | 0.00 | 0.00 | 29 | 1020.7 |
| 20260507194208 | 18 | 245 | 1.6 | 4.8 | 0.00 | 0.00 | 0.00 | 29 | 1020.8 |
| 20260507192704 | 17 | 295 | 3.2 | 4.8 | 0.00 | 0.00 | 0.00 | 29 | 1020.9 |
| 20260507191200 | 16 | 281 | 1.6 | 3.2 | 0.00 | 0.00 | 0.00 | 30 | 1021.1 |
| 20260507185659 | 17 | 236 | 0.0 | 0.0 | 0.00 | 0.00 | 0.00 | 25 | 1020.9 |
| 20260507184157 | 16 | 240 | 0.0 | 0.0 | 0.00 | 0.00 | 0.00 | 24 | 1021.1 |
| 20260507182653 | 16 | 252 | 0.0 | 0.0 | 0.00 | 0.00 | 0.00 | 26 | 1021.4 |
| 20260507181148 | 16 | 275 | 0.0 | 0.0 | 0.00 | 0.00 | 0.00 | 30 | 1021.6 |
| 20260507175649 | 16 | 265 | 1.6 | 3.2 | 0.00 | 0.00 | 0.00 | 26 | 1021.9 |
| 20260507174147 | 15 | 287 | 0.0 | 4.8 | 0.00 | 0.00 | 0.00 | 26 | 1021.7 |
| 20260507172643 | 15 | 281 | 4.8 | 8.0 | 0.00 | 0.00 | 0.00 | 24 | 1022.2 |
| 20260507171138 | 15 | 272 | 0.0 | 0.0 | 0.00 | 0.00 | 0.00 | 25 | 1022.1 |
| 20260507165633 | 15 | 272 | 0.0 | 0.0 | 0.00 | 0.00 | 0.00 | 25 | 1022.5 |
| 20260507164129 | 15 | 195 | 0.0 | 0.0 | 0.00 | 0.00 | 0.00 | 27 | 1022.5 |
| 20260507162625 | 13 | 241 | 0.0 | 0.0 | 0.00 | 0.00 | 0.00 | 29 | 1022.6 |
| 20260507161121 | 13 | 264 | 3.2 | 4.8 | 0.00 | 0.00 | 0.00 | 30 | 1022.7 |
| 20260507155621 | 13 | 279 | 4.8 | 8.0 | 0.00 | 0.00 | 0.00 | 33 | 1023.0 |
| 20260507154118 | 12 | 282 | 4.8 | 8.0 | 0.00 | 0.00 | 0.00 | 36 | 1022.5 |
| 20260507152613 | 12 | 277 | 6.4 | 11.3 | 0.00 | 0.00 | 0.00 | 38 | 1023.0 |
| 20260507151109 | 11 | 286 | 6.4 | 8.0 | 0.00 | 0.00 | 0.00 | 39 | 1022.7 |
| 20260507145603 | 11 | 244 | 6.4 | 8.0 | 0.00 | 0.00 | 0.00 | 39 | 1022.8 |
| 20260507144101 | 10 | 275 | 8.0 | 9.7 | 0.00 | 0.00 | 0.00 | 39 | 1022.7 |
| 20260507142600 | 9 | 262 | 8.0 | 9.7 | 0.00 | 0.00 | 0.00 | 42 | 1022.6 |
| 20260507141057 | 8 | 267 | 8.0 | 9.7 | 0.00 | 0.00 | 0.00 | 44 | 1022.7 |
| 20260507135553 | 7 | 283 | 4.8 | 8.0 | 0.00 | 0.00 | 0.00 | 48 | 1022.6 |
| 20260507134049 | 6 | 288 | 6.4 | 9.7 | 0.00 | 0.00 | 0.00 | 55 | 1022.6 |
| 20260507132545 | 5 | 281 | 1.6 | 3.2 | 0.00 | 0.00 | 0.00 | 60 | 1022.4 |
| 20260507131042 | 4 | 288 | 6.4 | 8.0 | 0.00 | 0.00 | 0.00 | 58 | 1022.5 |
| 20260507125541 | 3 | 280 | 0.0 | 0.0 | 0.00 | 0.00 | 0.00 | 60 | 1022.4 |
| 20260507124038 | 2 | 299 | 0.0 | 0.0 | 0.00 | 0.00 | 0.00 | 62 | 1022.0 |
| 20260507122533 | 1 | 296 | 0.0 | 0.0 | 0.00 | 0.00 | 0.00 | 62 | 1022.1 |
| 20260507121032 | 1 | 287 | 6.4 | 8.0 | 0.00 | 0.00 | 0.00 | 61 | 1021.7 |
| 20260507115528 | 1 | 292 | 0.0 | 0.0 | 0.00 | 0.00 | 0.00 | 65 | 1021.6 |
| 20260507114023 | 0 | 288 | 0.0 | 0.0 | 0.00 | 0.00 | 0.00 | 67 | 1022.1 |
| 20260507112521 | 0 | 277 | 0.0 | 0.0 | 0.00 | 0.00 | 0.00 | 72 | 1022.0 |
| 20260507111016 | 0 | 274 | 0.0 | 0.0 | 0.00 | 0.00 | 0.00 | 72 | 1021.9 |
| 20260507105512 | 0 | 276 | 0.0 | 0.0 | 0.00 | 0.00 | 0.00 | 73 | 1021.9 |
| 20260507104008 | -1 | 269 | 0.0 | 0.0 | 0.00 | 0.00 | 0.00 | 75 | 1021.9 |
| 20260507102504 | 0 | 275 | 0.0 | 0.0 | 0.00 | 0.00 | 0.00 | 75 | 1022.0 |
| 20260507100958 | 0 | 294 | 0.0 | 0.0 | 0.00 | 0.00 | 0.00 | 76 | 1022.2 |
| 20260507095457 | -1 | 270 | 0.0 | 0.0 | 0.00 | 0.00 | 0.00 | 77 | 1022.1 |
| 20260507093952 | -1 | 260 | 0.0 | 0.0 | 0.00 | 0.00 | 0.00 | 78 | 1022.2 |
| 20260507092450 | -1 | 241 | 0.0 | 0.0 | 0.00 | 0.00 | 0.00 | 78 | 1022.4 |
| 20260507090945 | -1 | 281 | 0.0 | 0.0 | 0.00 | 0.00 | 0.00 | 83 | 1022.4 |
| 20260507085441 | -2 | 287 | 0.0 | 0.0 | 0.00 | 0.00 | 0.00 | 87 | 1022.5 |
| 20260507083938 | -2 | 274 | 1.6 | 3.2 | 0.00 | 0.00 | 0.00 | 89 | 1022.6 |
| 20260507082438 | -1 | 267 | 0.0 | 0.0 | 0.00 | 0.00 | 0.00 | 91 | 1022.6 |
| 20260507080935 | -1 | 285 | 4.8 | 11.3 | 0.00 | 0.00 | 0.00 | 94 | 1022.7 |
| 20260507075434 | -2 | 285 | 8.0 | 11.3 | 0.00 | 0.00 | 0.00 | 96 | 1023.0 |
| 20260507073931 | -2 | 276 | 0.0 | 0.0 | 0.00 | 0.00 | 0.00 | 96 | 1023.2 |
| 20260507072428 | -3 | 272 | 0.0 | 0.0 | 0.00 | 0.00 | 0.00 | 96 | 1023.5 |
| 20260507070924 | -3 | 274 | 0.0 | 0.0 | 0.00 | 0.00 | 0.00 | 96 | 1023.5 |
| 20260507065421 | -4 | 301 | 0.0 | 0.0 | 0.00 | 0.00 | 0.00 | 96 | 1023.6 |
| 20260507063920 | -4 | 325 | 0.0 | 0.0 | 0.00 | 0.00 | 0.00 | 96 | 1023.6 |
| 20260507062416 | -3 | 297 | 0.0 | 0.0 | 0.00 | 0.00 | 0.00 | 96 | 1023.6 |
| 20260507060916 | -2 | 307 | 0.0 | 0.0 | 0.00 | 0.00 | 0.00 | 96 | 1023.9 |
| 20260507055416 | -2 | 308 | 0.0 | 0.0 | 0.00 | 0.05 | 0.05 | 95 | 1023.5 |
| 20260507053913 | -1 | 265 | 0.0 | 0.0 | 0.00 | 0.05 | 0.05 | 95 | 1023.6 |
| 20260507052412 | -1 | 224 | 0.0 | 0.0 | 0.00 | 0.05 | 0.05 | 95 | 1023.6 |
| 20260507050909 | -1 | 213 | 0.0 | 0.0 | 0.00 | 0.05 | 0.05 | 95 | 1023.5 |